Change the Weather History Date:

Monday, July 22, 2013

  Actual Average Record
Temperature  
Mean Temperature 65 °F -  
Max Temperature 80 °F 72 °F 87 °F (2011)
Min Temperature 50 °F 49 °F 44 °F (2000)
Growing Degree Days 15 (Base 50)    
Moisture  
Dew Point 49 °F    
Average Humidity 65    
Maximum Humidity 88    
Minimum Humidity 39    
Precipitation  
Precipitation 0.00 in - - ()
Sea Level Pressure  
Sea Level Pressure 29.69 in    
Wind  
Wind Speed 2 mph (WNW)    
Max Wind Speed 13 mph    
Max Gust Speed 24 mph    
Visibility 10 miles    
Events Rain    
Averages and records for this station are not official NWS values.
T = Trace of Precipitation, MM = Missing Value Source: NWS Daily Summary

Daily Weather History Graph

Daily Weather History Graph

Search for Another Location

Airport or City:

Trip Planner

Search our weather history database for the weather conditions in past years. The results will help you decide how hot, cold, wet, or windy it might be!

Date:

Astronomy

Jul. 22, 2013 Rise Set
Actual Time 5:32 AM CDT 8:50 PM CDT
Civil Twilight 4:55 AM CDT 9:28 PM CDT
Nautical Twilight 4:06 AM CDT 10:16 PM CDT
Astronomical Twilight 3:03 AM CDT 11:18 PM CDT
Moon 8:30 PM CDT (7/22) 5:33 AM CDT (7/22)
Length of Visible Light 16h 32m
Length of Day
15h 18m
Full, 100% of the Moon is Illuminated
Jul 22
Full
Jul 22
Full
Jul 29
Last Quarter
Aug 6
New
Aug 14
First Quarter

Hourly Weather History & Observations

Time (CDT) Temp. Heat Index Dew Point Humidity Pressure Visibility Wind Dir Wind Speed Gust Speed Precip Events Conditions
12:13 AM 51.8 °F - 44.6 °F 76% 29.85 in 10.0 mi Calm Calm - N/A   Clear
12:33 AM 51.8 °F - 44.6 °F 76% 29.84 in 10.0 mi Calm Calm - N/A   Clear
12:53 AM 51.8 °F - 44.6 °F 76% 29.82 in 10.0 mi Calm Calm - N/A   Clear
1:13 AM 50.0 °F - 44.6 °F 82% 29.83 in 10.0 mi Calm Calm - N/A   Clear
1:33 AM 50.0 °F - 44.6 °F 82% 29.83 in 10.0 mi Calm Calm - N/A   Clear
1:53 AM 50.0 °F - 44.6 °F 82% 29.81 in 10.0 mi Calm Calm - N/A   Scattered Clouds
2:13 AM 50.0 °F - 44.6 °F 82% 29.80 in 10.0 mi Calm Calm - N/A   Scattered Clouds
2:33 AM 51.8 °F - 42.8 °F 71% 29.79 in 10.0 mi Calm Calm - N/A   Scattered Clouds
2:53 AM 51.8 °F - 42.8 °F 71% 29.75 in 10.0 mi Calm Calm - N/A   Scattered Clouds
3:13 AM 51.8 °F - 42.8 °F 71% 29.75 in 10.0 mi Calm Calm - N/A   Scattered Clouds
3:33 AM 51.8 °F - 42.8 °F 71% 29.75 in 10.0 mi Calm Calm - N/A   Scattered Clouds
3:53 AM 51.8 °F - 44.6 °F 76% 29.75 in 10.0 mi Calm Calm - N/A   Scattered Clouds
4:13 AM 51.8 °F - 44.6 °F 76% 29.74 in 10.0 mi Calm Calm - N/A   Overcast
4:33 AM 51.8 °F - 44.6 °F 76% 29.73 in 10.0 mi Calm Calm - N/A   Overcast
4:53 AM 51.8 °F - 46.4 °F 82% 29.71 in 10.0 mi Calm Calm - N/A   Overcast
5:13 AM 51.8 °F - 46.4 °F 82% 29.71 in 10.0 mi Calm Calm - N/A   Overcast
5:33 AM 51.8 °F - 46.4 °F 82% 29.70 in 10.0 mi Calm Calm - N/A   Overcast
5:53 AM 51.8 °F - 46.4 °F 82% 29.70 in 10.0 mi Calm Calm - N/A   Overcast
6:13 AM 51.8 °F - 46.4 °F 82% 29.69 in 10.0 mi Calm Calm - N/A   Overcast
6:33 AM 53.6 °F - 48.2 °F 82% 29.68 in 10.0 mi Calm Calm - N/A   Overcast
6:53 AM 53.6 °F - 48.2 °F 82% 29.67 in 10.0 mi Calm Calm - N/A   Overcast
7:13 AM 53.6 °F - 48.2 °F 82% 29.67 in 10.0 mi Calm Calm - N/A   Overcast
7:33 AM 55.4 °F - 48.2 °F 77% 29.66 in 10.0 mi Calm Calm - N/A   Overcast
7:53 AM 55.4 °F - 50.0 °F 82% 29.65 in 10.0 mi Calm Calm - N/A Rain Light Rain
8:13 AM 55.4 °F - 51.8 °F 88% 29.65 in 10.0 mi Calm Calm - N/A   Overcast
8:33 AM 57.2 °F - 53.6 °F 88% 29.64 in 10.0 mi Calm Calm - N/A   Overcast
8:53 AM 59.0 °F - 55.4 °F 88% 29.63 in 10.0 mi Calm Calm - N/A   Mostly Cloudy
9:13 AM 60.8 °F - 55.4 °F 82% 29.63 in 10.0 mi SW 8.1 mph - N/A   Mostly Cloudy
9:33 AM 62.6 °F - 57.2 °F 82% 29.62 in 10.0 mi SW 5.8 mph - N/A   Mostly Cloudy
9:53 AM 64.4 °F - 57.2 °F 77% 29.61 in 10.0 mi SW 10.4 mph - N/A   Overcast
10:13 AM 66.2 °F - 59.0 °F 78% 29.61 in 10.0 mi WSW 6.9 mph - N/A   Mostly Cloudy
10:33 AM 68.0 °F - 60.8 °F 78% 29.60 in 10.0 mi WSW 4.6 mph - N/A   Scattered Clouds
10:53 AM 69.8 °F - 60.8 °F 73% 29.60 in 10.0 mi WSW 6.9 mph - N/A   Clear
11:13 AM 71.6 °F - 62.6 °F 73% 29.60 in 10.0 mi SW 5.8 mph - N/A   Clear
11:33 AM 73.4 °F - 62.6 °F 69% 29.59 in 10.0 mi SSW 11.5 mph 16.1 mph N/A   Clear
11:53 AM 75.2 °F - 62.6 °F 65% 29.59 in 10.0 mi WSW 3.5 mph - N/A   Clear
12:13 PM 77.0 °F - 62.6 °F 61% 29.58 in 10.0 mi SW 6.9 mph - N/A   Clear
12:33 PM 78.8 °F - 57.2 °F 47% 29.58 in 10.0 mi WSW 6.9 mph 17.3 mph N/A   Clear
12:53 PM 80.6 °F 80.5 °F 55.4 °F 42% 29.58 in 10.0 mi WSW 6.9 mph 17.3 mph N/A   Clear
1:13 PM 78.8 °F - 53.6 °F 42% 29.58 in 10.0 mi West 8.1 mph - N/A   Clear
1:33 PM 80.6 °F 80.3 °F 53.6 °F 39% 29.58 in 10.0 mi West 9.2 mph 17.3 mph N/A   Clear
1:53 PM 78.8 °F - 53.6 °F 42% 29.58 in 10.0 mi Calm Calm - N/A   Clear
2:13 PM 78.8 °F - 51.8 °F 39% 29.59 in 10.0 mi West 4.6 mph 16.1 mph N/A   Clear
2:33 PM 78.8 °F - 51.8 °F 39% 29.60 in 10.0 mi WNW 8.1 mph 17.3 mph N/A   Clear
2:53 PM 78.8 °F - 51.8 °F 39% 29.61 in 10.0 mi WNW 9.2 mph 19.6 mph N/A   Clear
3:13 PM 77.0 °F - 53.6 °F 44% 29.62 in 10.0 mi NNW 8.1 mph - N/A   Clear
3:33 PM 73.4 °F - 51.8 °F 47% 29.63 in 10.0 mi WNW 8.1 mph 23.0 mph N/A   Clear
3:53 PM 71.6 °F - 50.0 °F 46% 29.64 in 10.0 mi NW 9.2 mph 20.7 mph N/A   Clear
4:13 PM 71.6 °F - 50.0 °F 46% 29.65 in 10.0 mi NW 9.2 mph 21.9 mph N/A   Clear
4:33 PM 71.6 °F - 48.2 °F 43% 29.65 in 10.0 mi NNW 10.4 mph 16.1 mph N/A   Clear
4:53 PM 71.6 °F - 48.2 °F 43% 29.65 in 10.0 mi NW 6.9 mph 16.1 mph N/A   Clear
5:13 PM 69.8 °F - 48.2 °F 46% 29.66 in 10.0 mi NW 9.2 mph 23.0 mph N/A   Clear
5:33 PM 69.8 °F - 48.2 °F 46% 29.66 in 10.0 mi WNW 12.7 mph 19.6 mph N/A   Clear
5:53 PM 69.8 °F - 48.2 °F 46% 29.66 in 10.0 mi NW 12.7 mph 24.2 mph N/A   Clear
6:13 PM 69.8 °F - 46.4 °F 43% 29.67 in 10.0 mi NW 8.1 mph 23.0 mph N/A   Clear
6:33 PM 69.8 °F - 46.4 °F 43% 29.68 in 10.0 mi NW 5.8 mph 16.1 mph N/A   Clear
6:53 PM 69.8 °F - 46.4 °F 43% 29.68 in 10.0 mi NW 5.8 mph 17.3 mph N/A   Clear
7:13 PM 68.0 °F - 46.4 °F 46% 29.69 in 10.0 mi NW 10.4 mph 19.6 mph N/A   Clear
7:33 PM 66.2 °F - 46.4 °F 49% 29.69 in 10.0 mi WNW 6.9 mph - N/A   Clear
7:53 PM 66.2 °F - 46.4 °F 49% 29.71 in 10.0 mi NNW 8.1 mph - N/A   Clear
8:13 PM 64.4 °F - 44.6 °F 49% 29.72 in 10.0 mi North 4.6 mph - N/A   Clear
8:33 PM 62.6 °F - 44.6 °F 52% 29.72 in 10.0 mi Calm Calm - N/A   Clear
8:53 PM 60.8 °F - 46.4 °F 59% 29.73 in 10.0 mi Calm Calm - N/A   Clear
9:13 PM 60.8 °F - 44.6 °F 55% 29.74 in 10.0 mi Calm Calm - N/A   Clear
9:33 PM 57.2 °F - 46.4 °F 67% 29.75 in 10.0 mi Calm Calm - N/A   Clear
9:53 PM 57.2 °F - 46.4 °F 67% 29.76 in 10.0 mi Calm Calm - N/A   Clear
10:13 PM 55.4 °F - 46.4 °F 72% 29.76 in 10.0 mi Calm Calm - N/A   Clear
10:33 PM 55.4 °F - 46.4 °F 72% 29.76 in 10.0 mi Calm Calm - N/A   Clear
10:53 PM 55.4 °F - 46.4 °F 72% 29.76 in 10.0 mi Calm Calm - N/A   Clear
11:13 PM 53.6 °F - 46.4 °F 77% 29.77 in 10.0 mi Calm Calm - N/A   Clear
11:33 PM 53.6 °F - 46.4 °F 77% 29.78 in 10.0 mi Calm Calm - N/A   Clear
11:53 PM 53.6 °F - 46.4 °F 77% 29.78 in 10.0 mi Calm Calm - N/A   Clear